Location: Unspecified
(44.0704°N, 88.6889°W)
Time: 04:35:56
(UTC+02:00)

A-11 Canister half - All Passes

Search period start: 18 June 2019 00:00
Search period end: 28 June 2019 00:00
Orbit: 1525 x 1684 km, 47.3° (Epoch: 16 June)

Date Brightness Start Highest point End Pass type
(mag) Time Alt. Az. Time Alt. Az. Time Alt. Az.
18 Jun - 12:08:00 10° SSW 12:16:19 36° SE 12:24:30 10° ENE daylight
18 Jun - 14:11:09 10° WSW 14:20:33 84° SSE 14:29:52 10° ENE daylight
18 Jun - 16:16:34 10° W 16:25:55 73° N 16:35:17 10° E daylight
18 Jun - 18:21:57 10° WNW 18:31:17 84° SSW 18:40:45 10° ESE daylight
18 Jun - 20:27:19 10° WNW 20:35:30 36° SW 20:43:51 10° SSE daylight
19 Jun - 11:46:34 10° SSW 11:54:45 34° SE 12:02:50 10° ENE daylight
19 Jun - 13:49:31 10° WSW 13:58:56 82° SSE 14:08:15 10° ENE daylight
19 Jun - 15:54:56 10° W 16:04:16 73° N 16:13:38 10° E daylight
19 Jun - 18:00:19 10° WNW 18:09:39 86° SSW 18:19:07 10° ESE daylight
19 Jun - 20:05:40 10° WNW 20:13:56 38° SW 20:22:24 10° SSE daylight
20 Jun - 11:25:07 10° SSW 11:33:12 33° SE 11:41:09 10° ENE visible
20 Jun - 13:27:53 10° WSW 13:37:18 80° SSE 13:46:37 10° ENE daylight
20 Jun - 15:33:16 10° W 15:42:37 73° N 15:51:58 10° E daylight
20 Jun - 17:38:42 10° WNW 17:48:02 87° SSW 17:57:29 10° ESE daylight
20 Jun - 19:44:00 10° WNW 19:52:23 39° SW 20:00:55 10° SSE daylight
21 Jun - 11:03:41 10° S 11:11:39 31° SE 11:19:27 10° ENE visible
21 Jun - 13:06:16 10° WSW 13:15:42 78° SSE 13:25:00 10° ENE daylight
21 Jun - 15:11:36 10° W 15:20:59 73° N 15:30:19 10° E daylight
21 Jun - 17:17:04 10° WNW 17:26:25 89° SSW 17:35:51 10° ESE daylight
21 Jun - 19:22:20 10° WNW 19:30:49 41° SW 19:39:26 10° SSE daylight
22 Jun - 10:42:17 10° S 10:50:06 30° SE 10:57:45 10° ENE visible
22 Jun - 12:44:39 10° SW 12:54:05 76° SSE 13:03:22 10° ENE daylight
22 Jun - 14:49:56 10° W 14:59:19 74° N 15:08:40 10° E daylight
22 Jun - 16:55:26 10° WNW 17:04:47 89° NNE 17:14:12 10° ESE daylight
22 Jun - 19:00:41 10° WNW 19:09:15 43° SW 19:17:56 10° SSE daylight
22 Jun - 21:11:14 10° WSW 21:12:18 10° WSW 21:13:22 10° SW daylight
23 Jun - 10:20:53 10° S 10:28:32 28° SE 10:36:03 10° ENE visible
23 Jun - 12:23:02 10° SW 12:32:29 74° SSE 12:41:45 10° ENE daylight
23 Jun - 14:28:16 10° W 14:37:41 74° N 14:47:00 10° E daylight
23 Jun - 16:33:48 10° WNW 16:43:10 87° NNE 16:52:34 10° ESE daylight
23 Jun - 18:39:02 10° WNW 18:47:41 45° SW 18:56:26 10° SSE daylight
23 Jun - 20:48:17 10° WSW 20:50:47 11° WSW 20:53:18 10° SW daylight
24 Jun - 09:59:30 10° S 10:06:59 27° SE 10:14:20 10° ENE visible
24 Jun - 12:01:26 10° SW 12:10:53 72° SSE 12:20:08 10° ENE daylight
24 Jun - 14:06:36 10° W 14:16:01 75° N 14:25:22 10° E daylight
24 Jun - 16:12:10 10° WNW 16:21:33 86° NNE 16:30:56 10° ESE daylight
24 Jun - 18:17:23 10° WNW 18:26:06 47° SW 18:34:55 10° SSE daylight
24 Jun - 20:25:56 10° W 20:29:16 12° WSW 20:32:38 10° SW daylight
25 Jun - 09:38:08 10° S 09:45:26 25° SE 09:52:36 10° E visible
25 Jun - 11:39:50 10° SW 11:49:16 69° SSE 11:58:30 10° ENE daylight
25 Jun - 13:44:56 10° W 13:54:23 75° N 14:03:43 10° ENE daylight
25 Jun - 15:50:31 10° WNW 15:59:55 84° NNE 16:09:17 10° ESE daylight
25 Jun - 17:55:44 10° WNW 18:04:32 49° SW 18:13:25 10° SSE daylight
25 Jun - 20:03:47 10° W 20:07:45 13° WSW 20:11:45 10° SSW daylight
26 Jun - 09:16:47 10° S 09:23:54 24° SE 09:30:51 10° E visible
26 Jun - 11:18:14 10° SW 11:27:40 67° SSE 11:36:53 10° ENE visible
26 Jun - 13:23:16 10° W 13:32:45 76° N 13:42:04 10° ENE daylight
26 Jun - 15:28:53 10° WNW 15:38:17 83° NNE 15:47:38 10° ESE daylight
26 Jun - 17:34:06 10° WNW 17:42:57 51° SW 17:51:53 10° SE daylight
26 Jun - 19:41:44 10° W 19:46:14 15° SW 19:50:46 10° SSW daylight
27 Jun - 08:55:27 10° S 09:02:20 23° SE 09:09:05 10° E visible
27 Jun - 10:56:38 10° SW 11:06:04 65° SSE 11:15:15 10° ENE visible
27 Jun - 13:01:35 10° W 13:11:05 77° N 13:20:26 10° ENE daylight
27 Jun - 15:07:14 10° WNW 15:16:38 82° NNE 15:26:00 10° ESE daylight
27 Jun - 17:12:27 10° WNW 17:21:22 53° SW 17:30:21 10° SE daylight
27 Jun - 19:19:46 10° W 19:24:42 16° SW 19:29:41 10° SSW daylight
